Location: Peyton Hall Observatory
(40.3466°N, 74.6516°W)
Time: 15:29:52
(UTC-05:00)

ISS - All Passes

Search period start: 12 February 2016 00:00
Search period end: 22 February 2016 00:00
Orbit: 399 x 407 km, 51.6° (Epoch: 12 February)

Date Brightness Start Highest point End Pass type
(mag) Time Alt. Az. Time Alt. Az. Time Alt. Az.
12 Feb - 13:42:30 10° S 13:44:52 19° SE 13:47:15 10° E daylight
12 Feb - 15:17:57 10° WSW 15:21:06 45° NNW 15:24:14 10° NE daylight
12 Feb - 16:56:21 10° NW 16:58:10 14° NNW 16:59:59 10° NNE daylight
12 Feb - 18:34:16 10° NNW 18:35:42 12° N 18:37:08 10° NE visible
12 Feb - 20:10:01 10° NW 20:12:57 30° NNE 20:15:52 10° E visible
12 Feb - 21:46:27 10° WNW 21:49:24 32° SW 21:52:19 10° SSE night (unlit)
13 Feb - 14:25:07 10° SW 14:28:21 86° NW 14:31:38 10° NE daylight
13 Feb - 16:02:53 10° WNW 16:05:12 18° NNW 16:07:31 10° NNE daylight
13 Feb - 17:41:31 10° NNW 17:42:40 11° N 17:43:49 10° NNE daylight
13 Feb - 19:17:33 10° NNW 19:20:04 20° NNE 19:22:36 10° ENE visible
13 Feb - 20:53:33 10° WNW 20:56:47 67° SW 21:00:00 10° SE visible
14 Feb - 13:32:35 10° SSW 13:35:42 46° SE 13:38:50 10° ENE daylight
14 Feb - 15:09:31 10° W 15:12:17 25° NNW 15:15:02 10° NNE daylight
14 Feb - 16:48:21 10° NNW 16:49:37 12° N 16:50:52 10° NNE daylight
14 Feb - 18:25:04 10° NNW 18:27:07 15° NNE 18:29:10 10° NE visible
14 Feb - 20:00:52 10° NW 20:04:05 61° NE 20:07:17 10° ESE visible
14 Feb - 21:38:26 10° W 21:40:10 14° SW 21:41:53 10° SSW night (unlit)
15 Feb - 12:40:28 10° S 12:43:07 23° SE 12:45:46 10° ENE daylight
15 Feb - 14:16:21 10° W 14:19:26 38° NNW 14:22:30 10° NE daylight
15 Feb - 15:54:54 10° NW 15:56:34 13° N 15:58:14 10° NNE daylight
15 Feb - 17:32:32 10° NNW 17:34:06 13° N 17:35:40 10° NE daylight
15 Feb - 19:08:16 10° NW 19:11:17 34° NNE 19:14:17 10° E visible
15 Feb - 20:44:52 10° WNW 20:47:38 26° SW 20:50:25 10° SSE visible
16 Feb - 11:49:17 10° SSE 11:50:35 12° SE 11:51:54 10° ESE daylight
16 Feb - 13:23:23 10° WSW 13:26:38 71° NW 13:29:53 10° NE daylight
16 Feb - 15:01:22 10° WNW 15:03:33 16° NNW 15:05:43 10° NNE daylight
16 Feb - 16:39:49 10° NNW 16:41:01 12° N 16:42:14 10° NNE daylight
16 Feb - 18:15:44 10° NNW 18:18:24 23° NNE 18:21:02 10° ENE visible
16 Feb - 19:51:51 10° WNW 19:55:01 54° SW 19:58:11 10° SE visible
17 Feb - 12:30:42 10° SW 12:33:54 57° SE 12:37:07 10° ENE daylight
17 Feb - 14:07:56 10° WNW 14:10:33 22° NNW 14:13:12 10° NNE daylight
17 Feb - 15:46:44 10° NNW 15:47:56 12° N 15:49:08 10° NNE daylight
17 Feb - 17:23:13 10° NNW 17:25:25 17° NNE 17:27:37 10° ENE daylight
17 Feb - 18:59:04 10° NW 19:02:19 75° NE 19:05:32 10° ESE visible
17 Feb - 20:37:18 10° WSW 20:38:18 11° SW 20:39:19 10° SSW visible
18 Feb - 11:38:25 10° SSW 11:41:15 28° SE 11:44:06 10° ENE daylight
18 Feb - 13:14:38 10° W 13:17:38 33° NNW 13:20:39 10° NE daylight
18 Feb - 14:53:18 10° NW 14:54:50 13° N 14:56:23 10° NNE daylight
18 Feb - 16:30:40 10° NNW 16:32:22 13° NNE 16:34:04 10° NE daylight
18 Feb - 18:06:24 10° NW 18:09:30 40° NNE 18:12:34 10° ESE visible
18 Feb - 19:43:12 10° W 19:45:46 22° SW 19:48:19 10° S visible
19 Feb - 10:46:46 10° SSE 10:48:40 15° SE 10:50:35 10° E daylight
19 Feb - 12:21:34 10° WSW 12:24:47 58° NW 12:28:01 10° NE daylight
19 Feb - 13:59:44 10° NW 14:01:46 15° NNW 14:03:47 10° NNE daylight
19 Feb - 15:37:59 10° NNW 15:39:16 12° N 15:40:34 10° NNE daylight
19 Feb - 17:13:48 10° NNW 17:16:35 25° NNE 17:19:22 10° E daylight
19 Feb - 18:50:02 10° WNW 18:53:08 43° SW 18:56:13 10° SSE visible
20 Feb - 11:28:45 10° SW 11:32:00 72° SE 11:35:15 10° ENE daylight
20 Feb - 13:06:13 10° WNW 13:08:43 20° NNW 13:11:14 10° NNE daylight
20 Feb - 14:44:58 10° NNW 14:46:08 11° N 14:47:18 10° NNE daylight
20 Feb - 16:21:14 10° NNW 16:23:36 18° NNE 16:25:56 10° ENE daylight
20 Feb - 17:57:09 10° NW 18:00:24 89° SW 18:03:39 10° SE daylight
21 Feb - 10:36:17 10° SSW 10:39:17 34° SE 10:42:18 10° ENE daylight
21 Feb - 12:12:50 10° W 12:15:45 29° NNW 12:18:39 10° NE daylight
21 Feb - 13:51:35 10° NNW 13:53:00 12° N 13:54:25 10° NNE daylight
21 Feb - 15:28:40 10° NNW 15:30:32 14° NNE 15:32:23 10° NE daylight
21 Feb - 17:04:25 10° NW 17:07:35 47° NNE 17:10:44 10° ESE daylight
21 Feb - 18:41:29 10° W 18:43:46 18° SW 18:46:03 10° S visible
